Terug naar catalogus

COSMOS 2251 DEB

ActiefLEO
NORAD 36441·DEBRIS·🇷🇺 Russia

Gelanceerd Jun 16, 1993 vanaf Plesetsk Cosmodrome

Loading…

Volgende Passages (komende 24 uur)

TLE

VerouderendSource: Space-Track

Epoch: Sep 11, 2026, 01:00 UTC

1 36441U 93036BAQ 26254.04170287  .00004920  00000-0  26298-3 0  9992
2 36441  73.8344 141.3205 0102800 184.1568 175.8783 15.10880745910737

Volg COSMOS 2251 DEB in realtime met AllMySat

Download on the App Store